[[{"header":{"parameterUnit":"m.s-1","parameterCategory":1,"la1":30.2992,"la2":30.254,"lo1":-89.0895,"lo2":-89.0443,"dy":0.0025,"dx":0.0025,"nx":19,"ny":19,"refTime":"2026-04-08T03:00:00:Z","depth":0,"parameterNumber":2,"parameterNumberName":"U-component_of_WINDS"},"data":[0,0,0,-7.4533,-7.4535,-7.4632,-7.4632,-7.4787,-7.4789,0,0,0,0,0,0,0,0,0,0,0,-7.4524,-7.4526,-7.4533,-7.4536,-7.4632,-7.4632,-7.4787,-7.4789,0,0,0,0,0,0,0,0,0,0,0,-7.4523,-7.4526,-7.4528,-7.4536,-7.4631,-7.4632,-7.4787,-7.4702,0,0,0,0,0,0,0,0,0,0,-7.4603,-7.4615,-7.4525,-7.4528,-7.4537,-7.4631,-7.4632,-7.4698,-7.4708,-7.4758,0,-7.4808,0,-7.4802,-7.4802,-7.4802,0,0,0,-7.452,-7.4607,-7.4615,-7.4528,-7.4538,-7.4631,-7.4584,-7.4703,-7.4714,-7.4771,-7.481,-7.4815,-7.4804,-7.4803,-7.4804,-7.5148,-7.515,0,0,-7.4515,-7.4552,-7.4608,-7.4623,-7.4611,-7.4581,-7.4587,-7.4709,-7.4754,-7.4811,-7.4818,-7.4807,-7.4804,-7.4805,-7.5146,-7.5148,0,0,0,-7.451,-7.4549,-7.4553,-7.4618,-7.4633,-7.4584,-7.4591,-7.4748,-7.4747,-7.4819,-7.4809,-7.4805,-7.4807,-7.5143,-7.5147,-7.5299,0,0,0,-7.4506,-7.4546,-7.4552,-7.4575,-7.4631,-7.4692,-7.4628,-7.4738,-7.4751,-7.4808,-7.4805,-7.4809,-7.514,-7.5145,-7.529,-7.5366,0,0,0,-7.4511,-7.4546,-7.4567,-7.4577,-7.462,-7.4689,-7.4694,-7.474,-7.4745,-7.4802,-7.481,-7.5139,-7.5144,-7.5281,-7.5351,-7.5469,0,0,0,-7.4527,-7.4699,-7.457,-7.4759,-7.462,-7.4783,-7.4692,-7.4812,-7.4879,-7.4806,-7.5141,-7.5146,-7.5278,-7.5342,-7.546,-7.5577,-7.5628,0,0,-7.4765,-7.4729,-7.4838,-7.4725,-7.4921,-7.4765,-7.4983,-7.5008,-7.4979,-7.5093,-7.5101,-7.5293,-7.535,-7.5467,-7.5901,-7.5942,0,0,0,-7.4926,-7.5004,-7.5048,-7.5115,-7.514,-7.5168,-7.5157,-7.5167,-7.5262,-7.5046,-7.5365,-7.5398,-7.5465,-7.5519,-7.5555,-7.5611,-7.5172,-7.5172,-7.5171,-7.5316,-7.5272,-7.5448,-7.5416,-7.5482,-7.5471,-7.552,-7.5531,-7.5464,-7.5541,-7.5575,-7.5844,-7.5909,-7.5935,-7.5994,-7.5631,-7.5632,-7.5632,-7.5633,-7.5663,-7.5769,-7.5679,-7.5818,-7.577,-7.5886,-7.5882,-7.5832,-7.5934,-7.5814,-7.5871,-7.5745,-7.5982,-7.6031,-7.5644,-7.5642,-7.5641,-7.5639,-7.5639,-7.5916,-7.5959,-7.5969,-7.6064,-7.6141,-7.6102,-7.6205,-7.6156,-7.6111,-7.6167,-7.62,-7.6197,-7.619,-7.6186,-7.6187,-7.6188,-7.6189,-7.6189,-7.619,-7.6175,-7.6181,-7.6275,-7.6318,-7.6357,-7.6401,-7.6392,-7.6428,-7.6456,-7.6412,-7.6412,-7.6341,-7.6012,-7.5932,-7.6204,-7.6202,-7.62,-7.6198,-7.6197,-7.6546,-7.6455,-7.66,-7.6639,-7.6687,-7.6769,-7.6706,-7.6785,-7.6807,-7.6861,-7.6777,-7.6541,-7.6501,-7.6473,-7.6406,-7.6784,-7.6784,-7.6784,-7.6784,-7.6761,-7.6736,-7.6875,-7.694,-7.6999,-7.6958,-7.7124,-7.7121,-7.7102,-7.7114,-7.7051,-7.6959,-7.6932,-7.6907,-7.6869,-7.6807,-7.7278,-7.7279,-7.7279,-7.6988,-7.6967,-7.7118,-7.71,-7.7135,-7.7167,-7.7323,-7.7403,-7.7362,-7.7298,-7.7122,-7.7102,-7.6951,-7.6904,-7.6837,-7.678,-7.6664,0,0]},{"header":{"parameterUnit":"m.s-1","parameterCategory":1,"la1":30.2992,"la2":30.254,"lo1":-89.0895,"lo2":-89.0443,"dy":0.0025,"dx":0.0025,"nx":19,"ny":19,"refTime":"2026-04-08T03:00:00:Z","depth":0,"parameterNumber":3,"parameterNumberName":"V-component_of_WINDS"},"data":[0,0,0,-0.6068,-0.6068,-0.6079,-0.6079,-0.6113,-0.6113,0,0,0,0,0,0,0,0,0,0,0,-0.6075,-0.6076,-0.6068,-0.6068,-0.6079,-0.6079,-0.6113,-0.6113,0,0,0,0,0,0,0,0,0,0,0,-0.6075,-0.6075,-0.6076,-0.6068,-0.6079,-0.6079,-0.6112,-0.6097,0,0,0,0,0,0,0,0,0,0,-0.6083,-0.6101,-0.6075,-0.6076,-0.6068,-0.6079,-0.6079,-0.6096,-0.6098,-0.6115,0,-0.6133,0,-0.6123,-0.6116,-0.6117,0,0,0,-0.6061,-0.6099,-0.6092,-0.6076,-0.6069,-0.6079,-0.6072,-0.6097,-0.61,-0.6118,-0.6133,-0.6134,-0.6124,-0.6117,-0.6117,-0.6239,-0.624,0,0,-0.606,-0.6083,-0.6091,-0.6094,-0.6093,-0.6072,-0.6073,-0.6098,-0.6117,-0.6133,-0.6134,-0.6125,-0.6117,-0.6118,-0.6238,-0.6239,0,0,0,-0.6063,-0.6083,-0.6075,-0.6093,-0.6094,-0.6072,-0.6073,-0.6115,-0.6111,-0.6134,-0.6125,-0.6117,-0.6118,-0.6237,-0.6238,-0.6308,0,0,0,-0.6063,-0.6085,-0.6075,-0.609,-0.6094,-0.6105,-0.609,-0.6109,-0.6111,-0.6125,-0.6117,-0.6119,-0.6236,-0.6238,-0.6303,-0.6337,0,0,0,-0.6071,-0.6086,-0.6091,-0.6091,-0.6096,-0.6104,-0.61,-0.6109,-0.6106,-0.6117,-0.6119,-0.6235,-0.6237,-0.63,-0.6331,-0.6377,0,0,0,-0.6087,-0.6153,-0.6092,-0.6162,-0.6097,-0.6145,-0.61,-0.6135,-0.6153,-0.6118,-0.6236,-0.6238,-0.6298,-0.6327,-0.6373,-0.6421,-0.6443,0,0,-0.6183,-0.6165,-0.6204,-0.6151,-0.6217,-0.6142,-0.6218,-0.6212,-0.6192,-0.6225,-0.6227,-0.6305,-0.6331,-0.6376,-0.6553,-0.657,0,0,0,-0.6243,-0.6272,-0.6284,-0.6301,-0.6297,-0.6298,-0.6277,-0.6275,-0.6301,-0.6213,-0.6332,-0.6347,-0.6373,-0.6395,-0.6409,-0.6431,-0.6249,-0.6248,-0.6248,-0.6416,-0.6385,-0.6448,-0.6419,-0.6436,-0.6414,-0.6426,-0.6419,-0.6384,-0.6412,-0.6423,-0.6533,-0.656,-0.6571,-0.6594,-0.6444,-0.6444,-0.6444,-0.6444,-0.6556,-0.6593,-0.6543,-0.6586,-0.6554,-0.6591,-0.6572,-0.6545,-0.6576,-0.6523,-0.6544,-0.6492,-0.6591,-0.6609,-0.6449,-0.6448,-0.6448,-0.6447,-0.6447,-0.6668,-0.668,-0.6674,-0.6696,-0.6715,-0.6683,-0.6714,-0.6683,-0.6654,-0.6675,-0.6683,-0.6682,-0.6679,-0.668,-0.6681,-0.6681,-0.6682,-0.6682,-0.6682,-0.6786,-0.6778,-0.6807,-0.6808,-0.6814,-0.6819,-0.6796,-0.6802,-0.6801,-0.6777,-0.6776,-0.674,-0.6605,-0.6573,-0.6688,-0.6687,-0.6686,-0.6686,-0.6685,-0.6944,-0.6903,-0.6949,-0.6955,-0.6953,-0.6975,-0.6934,-0.6949,-0.6949,-0.6966,-0.6923,-0.6828,-0.6808,-0.6796,-0.677,-0.6928,-0.6928,-0.6928,-0.6928,-0.704,-0.7025,-0.7065,-0.7078,-0.7086,-0.7053,-0.7107,-0.709,-0.7065,-0.7064,-0.7036,-0.6997,-0.6986,-0.6973,-0.6957,-0.6932,-0.7128,-0.7129,-0.7129,-0.7136,-0.7121,-0.7173,-0.7147,-0.7142,-0.714,-0.7189,-0.7207,-0.7171,-0.7136,-0.7063,-0.7054,-0.6991,-0.6972,-0.6939,-0.6915,-0.6869,0,0]}]]